"Pseudo-MPEC" for C3ZUEA2

Created 2020 Nov 22 8:07:24 UT using Find_Orb

Click here for an explanation of pseudo-MPECs

 
 Astrometry: 
     C3ZUEA2  C2020 11 22.15776002 07 11.07 +38 58 38.9    ~BM4M 21.38GVNEOCPG96
     C3ZUEA2  C2020 11 22.16334402 07 11.17 +38 58 32.2    ~BM4M 21.48GVNEOCPG96
     C3ZUEA2  C2020 11 22.16893302 07 11.23 +38 58 26.0    ~BM4M 21.27GVNEOCPG96
     C3ZUEA2 KC2020 11 22.18939102 07 11.43 +38 58 02.5    ~BM57 21.43GVNEOCPV06
     C3ZUEA2 KC2020 11 22.19205902 07 11.45 +38 57 59.4    ~BM57 21.21GVNEOCPV06
     C3ZUEA2 KC2020 11 22.19472602 07 11.49 +38 57 56.2    ~BM57 21.03GVNEOCPV06
     C3ZUEA2 KC2020 11 22.29620802 07 12.53 +38 55 58.2    ~BM7b 20.89GVNEOCPV06
     C3ZUEA2 KC2020 11 22.29887502 07 12.57 +38 55 54.7    ~BM7b 20.79GVNEOCPV06
     C3ZUEA2 KC2020 11 22.30154202 07 12.60 +38 55 51.7    ~BM7b 21.12GVNEOCPV06

Station data:
(G96) Mt. Lemmon Survey  (N32.442754 W110.788720)  US/Arizona.  Observers T.
   A. Pruyne, B. M. Africano, E. J. Christensen, G. A. Farneth, D. C. Fuls,
   A. R. Gibbs, A. D. Grauer, H. Gröller, J. A. Johnson, R. A. Kowalski, S.
   M. Larson, G. J. Leonard, D. Rankin, R. L. Seaman, F. C. Shelly. 1.5-m
   reflector + 10K CCD.
(V06) Catalina Sky Survey-Kuiper  (N32.416847 W110.732550)  US/Arizona.
   Observers T. A. Pruyne, B. M. Africano, E. J. Christensen, G. A. Farneth,
   D. C. Fuls, A. R. Gibbs, A. D. Grauer, H. Gröller, J. A. Johnson, R. A.
   Kowalski, S. M. Larson, G. J. Leonard, D. Rankin, R. L. Seaman, F. C.
   Shelly. 1.55-m reflector + CCD.

Orbital elements:  C3ZUEA2
   Perihelion 2020 Oct 13.965571 +/- 53.7 TT = 23:10:25 (JD 2459136.465571)
Epoch 2020 Nov 22.0 TT = JDT 2459175.5   Earth MOID: 0.6265   AutoNEOCP
M   9.44133027 +/- 14               (J2000 ecliptic)
n   0.24187186 +/- 0.204            Peri.  107.37720 +/- 80
a   2.55120767 +/- 1.45             Node   282.68095 +/- 40
e   0.3879092 +/- 0.238             Incl.   12.99005 +/- 6
P   4.07                   H 20.5   G  0.15   U 11.7  SR
q 1.56157058 +/- 0.471    Q 3.54084476 +/- 57.7
From 9 observations 2020 Nov. 22 (3.5 hr); mean residual 0".13
Residuals in arcseconds: 
201122 G96  .33-  .18+    201122 V06  .03+  .02+    201122 V06  .10-  .20+    
201122 G96  .14+  .14-    201122 V06  .06-  .01-    201122 V06  .03+  .15-    
201122 G96  .16+  .05+    201122 V06  .09+  .14-    201122 V06  .03+  .00     

Ephemerides (geocentric):
Date (UTC) HH   RA              Dec         delta   r     elong  mag " sig PA
---- -- -- --  -------------   -----------  ------ ------ -----  --- ---- ---
2020 11 22 08  02 07 13.565   +38 55 14.03  .66120 1.5973 150.7 21.5 6.73   6
2020 11 22 09  02 07 14.255   +38 54 25.65  .66133 1.5973 150.7 21.5 9.33   3
2020 11 22 10  02 07 14.950   +38 53 37.25  .66147 1.5974 150.7 21.5 12.0   2
2020 11 22 11  02 07 15.649   +38 52 48.84  .66161 1.5975 150.6 21.5 14.6   1
2020 11 22 12  02 07 16.352   +38 52 00.42  .66174 1.5976 150.6 21.5 17.3   0
2020 11 22 13  02 07 17.058   +38 51 11.98  .66188 1.5976 150.6 21.5 19.9   0
2020 11 22 14  02 07 17.769   +38 50 23.53  .66202 1.5977 150.6 21.5 22.6 179
2020 11 22 15  02 07 18.484   +38 49 35.07  .66216 1.5978 150.6 21.5 25.3 179
2020 11 22 16  02 07 19.202   +38 48 46.60  .66229 1.5979 150.6 21.5 28.0 179
2020 11 22 17  02 07 19.925   +38 47 58.12  .66243 1.5979 150.6 21.5 30.7 178
2020 11 22 18  02 07 20.651   +38 47 09.63  .66257 1.5980 150.5 21.5 33.4 178
2020 11 22 19  02 07 21.382   +38 46 21.12  .66271 1.5981 150.5 21.5 36.2 178
2020 11 22 20  02 07 22.117   +38 45 32.60  .66285 1.5982 150.5 21.5 38.9 178
2020 11 22 21  02 07 22.855   +38 44 44.08  .66299 1.5982 150.5 21.5 41.7 178
2020 11 22 22  02 07 23.598   +38 43 55.54  .66313 1.5983 150.5 21.5 44.5 178
2020 11 22 23  02 07 24.344   +38 43 06.99  .66327 1.5984 150.5 21.5 47.3 177
2020 11 23 00  02 07 25.094   +38 42 18.43  .66341 1.5985 150.5 21.5 50.1 177
2020 11 23 01  02 07 25.849   +38 41 29.85  .66355 1.5985 150.4 21.5 52.9 177
2020 11 23 02  02 07 26.607   +38 40 41.27  .66369 1.5986 150.4 21.5 55.7 177
2020 11 23 03  02 07 27.370   +38 39 52.68  .66383 1.5987 150.4 21.5 58.5 177
2020 11 23 04  02 07 28.136   +38 39 04.08  .66398 1.5988 150.4 21.5 61.4 177
2020 11 23 05  02 07 28.906   +38 38 15.46  .66412 1.5988 150.4 21.5 64.2 177
2020 11 23 06  02 07 29.681   +38 37 26.84  .66426 1.5989 150.4 21.5 67.1 177
2020 11 23 07  02 07 30.459   +38 36 38.20  .66440 1.5990 150.4 21.5 70.0 177
2020 11 23 08  02 07 31.241   +38 35 49.56  .66455 1.5991 150.3 21.5 72.9 177
2020 11 23 09  02 07 32.028   +38 35 00.91  .66469 1.5991 150.3 21.5 75.8 176
2020 11 23 10  02 07 32.818   +38 34 12.24  .66483 1.5992 150.3 21.5 78.7 176
2020 11 23 11  02 07 33.612   +38 33 23.57  .66498 1.5993 150.3 21.5 81.7 176
2020 11 23 12  02 07 34.410   +38 32 34.89  .66512 1.5994 150.3 21.5 84.6 176
2020 11 23 13  02 07 35.213   +38 31 46.20  .66527 1.5995 150.3 21.5 87.6 176
2020 11 23 14  02 07 36.019   +38 30 57.50  .66541 1.5995 150.3 21.5 90.6 176
2020 11 23 15  02 07 36.829   +38 30 08.78  .66556 1.5996 150.2 21.5 93.5 176
2020 11 23 16  02 07 37.643   +38 29 20.07  .66570 1.5997 150.2 21.5 96.5 176
2020 11 23 17  02 07 38.461   +38 28 31.34  .66585 1.5998 150.2 21.5 99.6 176
2020 11 23 18  02 07 39.284   +38 27 42.60  .66599 1.5998 150.2 21.5  103 176
2020 11 23 19  02 07 40.110   +38 26 53.85  .66614 1.5999 150.2 21.5  106 176
2020 11 23 20  02 07 40.940   +38 26 05.10  .66629 1.6000 150.2 21.5  109 176
2020 11 23 21  02 07 41.774   +38 25 16.34  .66643 1.6001 150.1 21.5  112 176
2020 11 23 22  02 07 42.612   +38 24 27.57  .66658 1.6001 150.1 21.5  115 176
2020 11 23 23  02 07 43.454   +38 23 38.79  .66673 1.6002 150.1 21.5  118 176
2020 11 24 00  02 07 44.300   +38 22 50.00  .66688 1.6003 150.1 21.5  121 176
2020 11 24 01  02 07 45.150   +38 22 01.20  .66702 1.6004 150.1 21.5  124 176
2020 11 24 02  02 07 46.004   +38 21 12.40  .66717 1.6004 150.1 21.5  127 176
2020 11 24 03  02 07 46.862   +38 20 23.59  .66732 1.6005 150.1 21.5  130 176
2020 11 24 04  02 07 47.724   +38 19 34.77  .66747 1.6006 150.0 21.5  134 176
2020 11 24 05  02 07 48.591   +38 18 45.94  .66762 1.6007 150.0 21.5  137 176
2020 11 24 06  02 07 49.461   +38 17 57.11  .66777 1.6008 150.0 21.5  140 176
2020 11 24 07  02 07 50.334   +38 17 08.26  .66792 1.6008 150.0 21.5  143 176